Location: Cherryland
(37.6794°N, 122.1033°W)
Time: 13:47:20
(UTC+00:00)

Cosmos 2315 Rocket - Pass Details

Date: 14 December 2025
Orbit: 965 x 1002 km, 82.9° (Epoch: 17 January)

Event Time Altitude Azimuth Distance (km) Brightness Sun altitude
Rises 14:23:18 0° 355° (N) 3,719 6.8 -10.2°
Reaches altitude 10° 14:25:52 10° 358° (N) 2,762 6.1 -9.8°
Maximum altitude 14:32:12 71° 82° (E) 1,042 4.4 -8.6°
Drops below altitude 10° 14:38:25 10° 166° (SSE) 2,720 6.9 -7.5°
Sets 14:40:55 0° 169° (SSE) 3,658 7.6 -7.0°
